KQA270 HKJK-FIMP

Flight info

Callsign KQA270
Flight time N/A
Altitude 41000
Route ATUDU1D UVOVA UQ135 MOKAD UL433 APKOT DCT TIBAG TIBAG2E
Aircraft B788/H-SDE1E2E3FGHIJ2J3J4J5M1RWXYZ/LB1D1

Departure

Time 2026-05-07 10:46
Airport Jomo Kenyatta International Airport (HKJK)

Arrival

Time N/A
Airport Sir Seewoosagur Ramgoolam International Airport (FIMP)
Time Latitude Longitude Altitude Speed Heading
2026-05-07 10:14 -1.33357 36.92396 5341 ft 0 kts 18°
2026-05-07 10:34 -1.33358 36.92395 5341 ft 1 kts 18°
2026-05-07 10:34 -1.33373 36.92390 5341 ft 2 kts 19°
2026-05-07 10:34 -1.33387 36.92385 5341 ft 2 kts 19°
2026-05-07 10:34 -1.33402 36.92380 5341 ft 2 kts 19°
2026-05-07 10:35 -1.33417 36.92375 5341 ft 2 kts 19°
2026-05-07 10:35 -1.33428 36.92373 5341 ft 1 kts 341°
2026-05-07 10:35 -1.33437 36.92379 5341 ft 1 kts 302°
2026-05-07 10:35 -1.33441 36.92390 5341 ft 2 kts 270°
2026-05-07 10:36 -1.33442 36.92405 5341 ft 2 kts 274°
2026-05-07 10:36 -1.33442 36.92420 5341 ft 2 kts 274°
2026-05-07 10:36 -1.33442 36.92421 5341 ft 0 kts 274°
2026-05-07 10:36 -1.33442 36.92420 5341 ft 0 kts 274°
2026-05-07 10:39 -1.33442 36.92417 5341 ft 1 kts 273°
2026-05-07 10:39 -1.33442 36.92397 5341 ft 5 kts 271°
2026-05-07 10:39 -1.33452 36.92355 5341 ft 8 kts 247°
2026-05-07 10:39 -1.33487 36.92300 5341 ft 10 kts 234°
2026-05-07 10:40 -1.33520 36.92253 5341 ft 5 kts 237°
2026-05-07 10:40 -1.33522 36.92214 5341 ft 7 kts 295°
2026-05-07 10:40 -1.33480 36.92171 5341 ft 10 kts 322°
2026-05-07 10:40 -1.33414 36.92124 5341 ft 13 kts 324°
2026-05-07 10:41 -1.33332 36.92065 5341 ft 16 kts 324°
2026-05-07 10:41 -1.33235 36.91994 5341 ft 18 kts 324°
2026-05-07 10:41 -1.33126 36.91915 5341 ft 20 kts 324°
2026-05-07 10:41 -1.33049 36.91857 5341 ft 13 kts 322°
2026-05-07 10:42 -1.32965 36.91796 5341 ft 16 kts 325°
2026-05-07 10:42 -1.32889 36.91743 5341 ft 12 kts 325°
2026-05-07 10:42 -1.32855 36.91720 5341 ft 0 kts 324°
2026-05-07 10:43 -1.32855 36.91719 5341 ft 0 kts 324°
2026-05-07 10:44 -1.32850 36.91716 5341 ft 2 kts 324°
2026-05-07 10:44 -1.32826 36.91699 5341 ft 6 kts 324°
2026-05-07 10:44 -1.32794 36.91676 5341 ft 4 kts 324°
2026-05-07 10:44 -1.32767 36.91656 5341 ft 5 kts 324°
2026-05-07 10:45 -1.32747 36.91658 5341 ft 3 kts 43°
2026-05-07 10:45 -1.32728 36.91679 5341 ft 5 kts 52°
2026-05-07 10:45 -1.32726 36.91682 5341 ft 0 kts 52°
2026-05-07 10:46 -1.32702 36.91714 5341 ft 32 kts 53°
2026-05-07 10:46 -1.32384 36.92151 5341 ft 120 kts 53°
2026-05-07 10:46 -1.31749 36.93028 5397 ft 182 kts 54°
2026-05-07 10:46 -1.31017 36.94052 6328 ft 179 kts 56°
2026-05-07 10:47 -1.30559 36.95202 7108 ft 180 kts 75°
2026-05-07 10:47 -1.30616 36.96447 7651 ft 186 kts 98°
2026-05-07 10:47 -1.31203 36.97626 8157 ft 191 kts 120°
2026-05-07 10:47 -1.32075 36.98618 8691 ft 195 kts 130°
2026-05-07 10:48 -1.33004 36.99651 9091 ft 204 kts 130°
2026-05-07 10:48 -1.33931 37.00785 9357 ft 219 kts 127°
2026-05-07 10:48 -1.34889 37.02050 9633 ft 237 kts 126°
2026-05-07 10:48 -1.35890 37.03436 10062 ft 253 kts 124°
2026-05-07 10:49 -1.36936 37.04923 10527 ft 269 kts 124°
2026-05-07 10:49 -1.38030 37.06501 10998 ft 284 kts 124°
2026-05-07 10:49 -1.39175 37.08166 11477 ft 299 kts 123°
2026-05-07 10:49 -1.40375 37.09918 12017 ft 312 kts 123°
2026-05-07 10:50 -1.41633 37.11759 12451 ft 328 kts 123°
2026-05-07 10:50 -1.42951 37.13689 12843 ft 345 kts 123°
2026-05-07 10:50 -1.44335 37.15719 13254 ft 360 kts 123°
2026-05-07 10:50 -1.45773 37.17826 13768 ft 372 kts 123°
2026-05-07 10:51 -1.47226 37.19957 14351 ft 380 kts 123°
2026-05-07 10:51 -1.48242 37.21447 14775 ft 385 kts 123°